DW7322 Weather Reports


Display with metric or nautical units.
time (UTC)temp
F
wind
direction
speed
MPH
gust
MPH
rain 1hr
in
rain 24hr
in
rain mn
in
humidity
%
barometer
mb
20260507014530 44 304 0.0 1.0 0.00 0.00 0.00 57 1016.1
20260507013032 44 305 0.0 1.0 0.00 0.00 0.00 57 1016.0
20260507011601 45 305 0.0 1.0 0.00 0.00 0.00 54 1015.9
20260507010119 46 305 0.0 1.0 0.00 0.00 0.00 52 1015.9
20260507004516 47 312 0.0 2.0 0.00 0.00 0.00 50 1015.8
20260507003033 48 332 0.0 3.0 0.00 0.00 0.00 49 1015.8
20260507001557 49 306 0.0 4.0 0.00 0.00 0.00 49 1015.7
20260507000111 50 300 1.0 5.0 0.00 0.00 0.00 48 1015.4
20260506234557 51 306 0.0 4.0 0.00 0.00 0.00 49 1015.4
20260506233017 51 305 1.0 7.0 0.00 0.00 0.00 48 1015.3
20260506231534 52 307 0.0 11.0 0.00 0.00 0.00 46 1015.2
20260506230056 52 322 0.0 5.0 0.00 0.00 0.00 46 1015.0
20260506224550 53 279 1.0 6.0 0.00 0.00 0.00 44 1014.9
20260506223016 53 323 1.0 6.0 0.00 0.00 0.00 45 1014.8
20260506221533 52 291 0.0 5.0 0.00 0.00 0.00 45 1014.6
20260506220059 53 314 2.0 9.0 0.00 0.00 0.00 44 1014.6
20260506214554 53 357 1.0 6.0 0.00 0.00 0.00 46 1014.4
20260506213016 54 310 1.0 8.0 0.00 0.00 0.00 43 1014.5
20260506211534 54 309 4.0 9.0 0.00 0.00 0.00 43 1014.5
20260506210056 54 305 2.0 7.0 0.00 0.00 0.00 43 1014.4
20260506204549 55 283 1.0 10.0 0.00 0.00 0.00 42 1014.3
20260506203007 54 322 1.0 6.0 0.00 0.00 0.00 45 1014.5
20260506201525 56 319 2.0 5.0 0.00 0.00 0.00 41 1014.4
20260506200048 57 276 2.0 6.0 0.00 0.00 0.00 44 1014.4
20260506194543 57 120 2.0 5.0 0.00 0.00 0.00 42 1014.6
20260506193107 57 267 1.0 3.0 0.00 0.00 0.00 39 1014.7
20260506191524 57 261 3.0 8.0 0.00 0.00 0.00 42 1014.8
20260506190046 57 253 1.0 5.0 0.00 0.00 0.00 41 1014.7
20260506184538 57 21 2.0 9.0 0.00 0.00 0.00 37 1014.6
20260506183057 57 319 1.0 6.0 0.00 0.00 0.00 39 1014.6
20260506181518 56 316 2.0 6.0 0.00 0.00 0.00 39 1014.6
20260506180010 55 316 2.0 5.0 0.00 0.00 0.00 41 1014.7
20260506174530 57 295 1.0 5.0 0.00 0.00 0.00 41 1014.6
20260506173044 56 316 1.0 5.0 0.00 0.00 0.00 43 1014.9
20260506171604 54 280 0.0 6.0 0.00 0.00 0.00 49 1014.9
20260506171507 54 298 1.0 6.0 0.00 0.00 0.00 44 1014.9
20260506170120 54 286 0.0 6.0 0.00 0.00 0.00 46 1014.9
20260506164514 55 297 1.0 3.0 0.00 0.00 0.00 42 1015.0
20260506163057 54 311 0.0 3.0 0.00 0.00 0.00 47 1015.1
20260506161547 54 316 0.0 4.0 0.00 0.00 0.00 43 1015.1
20260506160108 54 307 0.0 4.0 0.00 0.00 0.00 43 1015.0
20260506154506 54 248 0.0 4.0 0.00 0.00 0.00 47 1015.0
20260506153030 53 311 0.0 4.0 0.00 0.00 0.00 47 1015.0
20260506151552 54 267 0.0 3.0 0.00 0.00 0.00 48 1015.1
20260506150113 54 269 0.0 3.0 0.00 0.00 0.00 46 1015.1
20260506144558 53 356 0.0 2.0 0.00 0.00 0.00 50 1015.2
20260506143014 52 270 0.0 1.0 0.00 0.00 0.00 54 1015.4
20260506141537 52 282 0.0 3.0 0.00 0.00 0.00 49 1015.3
20260506140100 52 308 0.0 1.0 0.00 0.00 0.00 52 1015.2
20260506134552 50 231 0.0 0.0 0.00 0.00 0.00 54 1015.2
20260506133013 49 183 0.0 1.0 0.00 0.00 0.00 56 1014.7
20260506131530 49 257 0.0 0.0 0.00 0.00 0.00 60 1014.5
20260506130051 47 1 0.0 1.0 0.00 0.00 0.00 66 1014.4
20260506124538 44 1 0.0 0.0 0.00 0.00 0.00 73 1014.4
20260506123052 42 2 0.0 0.0 0.00 0.00 0.00 79 1014.1
20260506121514 40 1 0.0 0.0 0.00 0.00 0.00 80 1013.9
20260506120008 40 1 0.0 0.0 0.00 0.00 0.00 78 1013.6
20260506114541 39 1 0.0 0.0 0.00 0.00 0.00 78 1013.5
20260506113050 39 1 0.0 1.0 0.00 0.00 0.00 80 1013.4
20260506111514 38 1 0.0 0.0 0.00 0.00 0.00 81 1013.4
20260506110007 38 1 0.0 0.0 0.00 0.00 0.00 81 1013.3
20260506104534 38 1 0.0 1.0 0.00 0.00 0.00 80 1013.3
20260506103044 38 1 0.0 0.0 0.00 0.00 0.00 79 1013.1
20260506101503 39 1 0.0 0.0 0.00 0.00 0.00 78 1012.7
20260506100120 39 1 0.0 0.0 0.00 0.00 0.00 78 1012.6
20260506094512 39 1 0.0 1.0 0.00 0.00 0.00 77 1012.6
20260506093036 39 1 0.0 0.0 0.00 0.00 0.00 77 1012.6
20260506091552 40 1 0.0 0.0 0.00 0.00 0.00 76 1012.6
20260506090117 40 1 0.0 0.0 0.00 0.00 0.00 74 1012.4
20260506084510 41 1 0.0 0.0 0.00 0.00 0.00 73 1012.6
20260506083032 41 1 0.0 1.0 0.00 0.00 0.00 70 1012.5
20260506081551 39 1 0.0 0.0 0.00 0.00 0.00 73 1012.3
20260506080116 40 1 0.0 0.0 0.00 0.00 0.00 74 1012.3
20260506073022 42 1 0.0 0.0 0.00 0.00 0.00 67 1012.0
20260506071536 44 1 0.0 1.0 0.00 0.00 0.00 63 1012.0
20260506070110 44 1 0.0 1.0 0.00 0.00 0.00 62 1011.8
20260506061537 43 312 0.0 0.0 0.00 0.00 0.00 66 1012.0
20260506050138 46 312 0.0 0.0 0.00 0.00 0.00 71 1011.4
20260506044547 47 311 0.0 0.0 0.00 0.00 0.00 66 1011.2
20260506043007 47 311 0.0 0.0 0.00 0.00 0.00 66 1011.1
20260506041527 47 311 0.0 0.0 0.00 0.00 0.00 67 1011.5
20260506040100 48 311 0.0 0.0 0.00 0.00 0.00 67 1011.5
20260506034549 48 311 0.0 0.0 0.00 0.00 0.00 65 1011.2
20260506033005 48 311 0.0 0.0 0.00 0.00 0.00 72 1011.2
20260506031538 48 310 0.0 0.0 0.00 0.00 0.00 68 1010.9
20260506030009 48 311 0.0 0.0 0.00 0.00 0.00 67 1010.7
20260506024534 49 311 0.0 0.0 0.00 0.00 0.00 63 1010.4
20260506023053 49 311 0.0 0.0 0.00 0.00 0.00 60 1010.5
20260506021512 50 311 0.0 0.0 0.00 0.00 0.00 58 1010.4
20260506020002 50 311 0.0 0.0 0.00 0.00 0.00 55 1010.2